FLIWT27 AYPY-RPLL

Flight info

Callsign FLIWT27
Flight time N/A
Altitude 34000
Route STARF1 STARF H539 KIBAV B462 OLGAN/N0454F360 B462 TAC W9 AKDAP AKDAP1A
Aircraft A320/M-SDE2E3FGHIRWY/LB1

Departure

Time 2026-05-06 05:15
Airport Port Moresby Jacksons International Airport (AYPY)

Arrival

Time N/A
Airport Ninoy Aquino International Airport (RPLL)
Time Latitude Longitude Altitude Speed Heading
2026-05-06 04:49 -9.43821 147.21179 84 ft 0 kts 237°
2026-05-06 05:08 -9.43811 147.21195 86 ft 4 kts 237°
2026-05-06 05:08 -9.43799 147.21214 84 ft 4 kts 242°
2026-05-06 05:08 -9.43790 147.21238 85 ft 4 kts 270°
2026-05-06 05:08 -9.43796 147.21262 85 ft 4 kts 313°
2026-05-06 05:09 -9.43809 147.21273 84 ft 0 kts 330°
2026-05-06 05:11 -9.43800 147.21268 85 ft 3 kts 331°
2026-05-06 05:11 -9.43756 147.21245 82 ft 8 kts 338°
2026-05-06 05:12 -9.43709 147.21256 82 ft 8 kts 39°
2026-05-06 05:12 -9.43618 147.21256 80 ft 20 kts 330°
2026-05-06 05:12 -9.43494 147.21181 78 ft 21 kts 328°
2026-05-06 05:12 -9.43370 147.21103 78 ft 21 kts 328°
2026-05-06 05:13 -9.43264 147.21116 79 ft 16 kts 56°
2026-05-06 05:13 -9.43208 147.21209 80 ft 15 kts 58°
2026-05-06 05:13 -9.43157 147.21291 80 ft 12 kts 59°
2026-05-06 05:13 -9.43120 147.21356 81 ft 9 kts 59°
2026-05-06 05:14 -9.43116 147.21405 82 ft 6 kts 117°
2026-05-06 05:14 -9.43141 147.21424 82 ft 4 kts 148°
2026-05-06 05:14 -9.43217 147.21471 82 ft 30 kts 148°
2026-05-06 05:14 -9.43610 147.21713 85 ft 99 kts 148°
2026-05-06 05:15 -9.44352 147.22171 94 ft 149 kts 149°
2026-05-06 05:15 -9.45331 147.22774 372 ft 168 kts 149°
2026-05-06 05:15 -9.46320 147.23399 997 ft 169 kts 149°
2026-05-06 05:15 -9.47337 147.24016 1613 ft 171 kts 151°
2026-05-06 05:16 -9.48485 147.24350 2016 ft 180 kts 187°
2026-05-06 05:16 -9.49631 147.23756 2163 ft 203 kts 231°
2026-05-06 05:16 -9.50264 147.22404 2408 ft 224 kts 251°
2026-05-06 05:16 -9.50721 147.20811 2689 ft 248 kts 254°
2026-05-06 05:17 -9.51176 147.19059 3087 ft 265 kts 254°
2026-05-06 05:17 -9.51660 147.17237 3760 ft 270 kts 254°
2026-05-06 05:17 -9.52174 147.15393 4475 ft 274 kts 253°
2026-05-06 05:17 -9.52718 147.13530 5185 ft 277 kts 253°
2026-05-06 05:18 -9.53281 147.11655 5872 ft 281 kts 253°
2026-05-06 05:18 -9.53862 147.09754 6545 ft 284 kts 255°
2026-05-06 05:18 -9.54143 147.07767 7182 ft 286 kts 274°
2026-05-06 05:18 -9.53739 147.05801 7810 ft 287 kts 294°
2026-05-06 05:19 -9.52688 147.04098 8417 ft 289 kts 314°
2026-05-06 05:19 -9.51166 147.02775 9007 ft 292 kts 323°
2026-05-06 05:19 -9.49559 147.01494 9646 ft 295 kts 323°
2026-05-06 05:19 -9.47927 147.00192 10183 ft 301 kts 323°
2026-05-06 05:20 -9.46225 146.98830 10300 ft 322 kts 322°
2026-05-06 05:20 -9.44410 146.97371 10440 ft 341 kts 322°
2026-05-06 05:20 -9.42526 146.95854 10838 ft 349 kts 322°
2026-05-06 05:20 -9.40606 146.94329 11363 ft 353 kts 322°
2026-05-06 05:21 -9.38653 146.92802 11906 ft 357 kts 323°
2026-05-06 05:21 -9.36706 146.91288 12440 ft 360 kts 323°
2026-05-06 05:21 -9.34678 146.89714 12983 ft 363 kts 323°
2026-05-06 05:21 -9.32674 146.88156 13504 ft 366 kts 323°
2026-05-06 05:22 -9.30643 146.86575 13967 ft 369 kts 323°
2026-05-06 05:22 -9.28601 146.84984 14433 ft 372 kts 323°
2026-05-06 05:22 -9.26585 146.83410 14904 ft 373 kts 323°
2026-05-06 05:22 -9.24517 146.81794 15389 ft 375 kts 322°
2026-05-06 05:23 -9.22419 146.80153 15859 ft 377 kts 323°
2026-05-06 05:23 -9.20365 146.78546 16317 ft 379 kts 323°
2026-05-06 05:23 -9.16168 146.75267 17210 ft 384 kts 322°
2026-05-06 05:24 -9.14059 146.73610 17641 ft 386 kts 320°
2026-05-06 05:24 -9.12155 146.71686 18090 ft 389 kts 309°
2026-05-06 05:24 -9.10574 146.69443 18468 ft 391 kts 304°
2026-05-06 05:24 -9.09051 146.67154 18852 ft 393 kts 304°
2026-05-06 05:25 -9.07520 146.64855 19258 ft 395 kts 304°
2026-05-06 05:25 -9.05982 146.62548 19645 ft 397 kts 304°
2026-05-06 05:25 -9.04433 146.60223 20009 ft 400 kts 304°
2026-05-06 05:25 -9.02875 146.57887 20378 ft 402 kts 304°
2026-05-06 05:26 -9.01304 146.55538 20764 ft 404 kts 304°
2026-05-06 05:26 -8.99723 146.53181 21147 ft 406 kts 304°
2026-05-06 05:26 -8.98131 146.50810 21510 ft 409 kts 304°
2026-05-06 05:26 -8.96531 146.48421 21871 ft 412 kts 304°
2026-05-06 05:27 -8.94922 146.46012 22240 ft 413 kts 304°
2026-05-06 05:27 -8.93310 146.43597 22594 ft 416 kts 304°
2026-05-06 05:27 -8.91686 146.41167 22964 ft 417 kts 304°
2026-05-06 05:27 -8.90064 146.38741 23304 ft 420 kts 304°
2026-05-06 05:28 -8.88417 146.36281 23575 ft 422 kts 304°
2026-05-06 05:28 -8.86766 146.33819 23881 ft 423 kts 304°
2026-05-06 05:28 -8.85112 146.31356 24166 ft 425 kts 304°
2026-05-06 05:28 -8.83452 146.28884 24437 ft 426 kts 304°
2026-05-06 05:29 -8.81782 146.26399 24720 ft 427 kts 304°
2026-05-06 05:29 -8.80104 146.23898 24949 ft 430 kts 304°
2026-05-06 05:29 -8.78427 146.21393 25206 ft 432 kts 304°
2026-05-06 05:29 -8.76747 146.18883 25493 ft 433 kts 304°
2026-05-06 05:30 -8.75072 146.16381 25747 ft 434 kts 304°
2026-05-06 05:30 -8.73380 146.13862 25971 ft 436 kts 304°
2026-05-06 05:30 -8.71666 146.11309 26206 ft 438 kts 304°
2026-05-06 05:30 -8.69955 146.08758 26447 ft 440 kts 304°
2026-05-06 05:31 -8.68227 146.06212 26714 ft 440 kts 304°
2026-05-06 05:31 -8.66482 146.03668 26977 ft 441 kts 304°
2026-05-06 05:31 -8.64722 146.01121 27163 ft 443 kts 305°
2026-05-06 05:31 -8.62945 145.98560 27381 ft 445 kts 304°
2026-05-06 05:32 -8.61172 145.96000 27644 ft 445 kts 304°
2026-05-06 05:32 -8.59396 145.93429 27855 ft 447 kts 304°
2026-05-06 05:32 -8.57625 145.90855 28056 ft 449 kts 304°
2026-05-06 05:32 -8.55834 145.88246 28257 ft 451 kts 304°
2026-05-06 05:33 -8.54044 145.85638 28436 ft 453 kts 304°
2026-05-06 05:33 -8.52249 145.83024 28675 ft 453 kts 304°
2026-05-06 05:33 -8.50449 145.80402 28837 ft 455 kts 304°
2026-05-06 05:33 -8.48664 145.77807 29029 ft 457 kts 304°
2026-05-06 05:34 -8.46817 145.75126 29156 ft 460 kts 304°
2026-05-06 05:34 -8.45016 145.72510 29328 ft 461 kts 304°
2026-05-06 05:34 -8.43186 145.69854 29584 ft 461 kts 304°
2026-05-06 05:34 -8.41356 145.67194 29779 ft 461 kts 304°
2026-05-06 05:35 -8.39524 145.64532 29924 ft 463 kts 304°
2026-05-06 05:35 -8.37680 145.61858 30076 ft 464 kts 304°
2026-05-06 05:35 -8.35839 145.59193 30325 ft 461 kts 304°
2026-05-06 05:35 -8.34009 145.56540 30572 ft 460 kts 304°
2026-05-06 05:36 -8.32190 145.53896 30780 ft 460 kts 304°
2026-05-06 05:36 -8.30358 145.51236 30944 ft 460 kts 304°
2026-05-06 05:36 -8.28529 145.48584 31071 ft 462 kts 304°
2026-05-06 05:36 -8.26698 145.45932 31264 ft 462 kts 304°
2026-05-06 05:37 -8.24859 145.43263 31464 ft 461 kts 304°
2026-05-06 05:37 -8.23031 145.40612 31653 ft 461 kts 304°
2026-05-06 05:37 -8.21189 145.37946 31871 ft 461 kts 304°
2026-05-06 05:37 -8.19363 145.35299 32105 ft 460 kts 304°
2026-05-06 05:38 -8.17543 145.32658 32328 ft 459 kts 304°
2026-05-06 05:38 -8.15722 145.30014 32580 ft 457 kts 304°
2026-05-06 05:38 -8.13903 145.27375 32778 ft 457 kts 304°
2026-05-06 05:38 -8.12089 145.24748 32987 ft 457 kts 305°
2026-05-06 05:39 -8.10267 145.22120 33182 ft 457 kts 305°
2026-05-06 05:39 -8.08456 145.19511 33495 ft 453 kts 304°
2026-05-06 05:39 -8.06654 145.16909 33760 ft 450 kts 304°
2026-05-06 05:39 -8.04872 145.14332 33819 ft 447 kts 304°
2026-05-06 05:40 -8.01334 145.09206 33826 ft 443 kts 304°
2026-05-06 05:40 -7.97814 145.04103 33823 ft 444 kts 304°
2026-05-06 05:41 -7.94265 144.98972 33822 ft 447 kts 304°
2026-05-06 05:41 -7.90717 144.93841 33825 ft 445 kts 304°
2026-05-06 05:42 -7.87171 144.88727 33812 ft 445 kts 304°
2026-05-06 05:42 -7.83623 144.83615 33825 ft 444 kts 304°
2026-05-06 05:43 -7.80085 144.78513 33823 ft 444 kts 304°
2026-05-06 05:43 -7.76540 144.73395 33816 ft 445 kts 305°
2026-05-06 05:44 -7.73594 144.69140 33808 ft 445 kts 305°
2026-05-06 05:44 -7.69468 144.63193 33812 ft 445 kts 305°
2026-05-06 05:45 -7.66486 144.58899 33810 ft 446 kts 305°
2026-05-06 05:45 -7.62366 144.52956 33822 ft 445 kts 305°
2026-05-06 05:46 -7.59400 144.48677 33822 ft 445 kts 304°
2026-05-06 05:46 -7.55853 144.43568 33819 ft 445 kts 305°
2026-05-06 05:47 -7.52288 144.38445 33815 ft 446 kts 305°
2026-05-06 05:47 -7.48732 144.33328 33813 ft 446 kts 305°
2026-05-06 05:48 -7.45166 144.28196 33808 ft 447 kts 305°
2026-05-06 05:48 -7.41582 144.23082 33815 ft 447 kts 306°
2026-05-06 05:49 -7.37852 144.18085 33840 ft 445 kts 308°
2026-05-06 05:49 -7.34056 144.13159 33842 ft 445 kts 308°
2026-05-06 05:50 -7.30310 144.08255 33843 ft 444 kts 308°
2026-05-06 05:50 -7.26581 144.03301 33838 ft 444 kts 307°
2026-05-06 05:51 -7.22860 143.98342 33841 ft 444 kts 307°
2026-05-06 05:51 -7.19131 143.93386 33834 ft 444 kts 307°
2026-05-06 05:52 -7.15398 143.88434 33839 ft 444 kts 307°
2026-05-06 05:52 -7.11672 143.83489 33846 ft 444 kts 307°
2026-05-06 05:53 -7.07933 143.78530 33848 ft 444 kts 307°
2026-05-06 05:53 -7.04203 143.73579 33844 ft 444 kts 307°
2026-05-06 05:54 -7.00464 143.68627 33840 ft 444 kts 308°
2026-05-06 05:54 -6.96717 143.63675 33844 ft 445 kts 307°
2026-05-06 05:55 -6.92965 143.58717 33852 ft 445 kts 308°
2026-05-06 05:55 -6.89212 143.53746 33850 ft 445 kts 308°
2026-05-06 05:56 -6.85463 143.48787 33859 ft 444 kts 308°
2026-05-06 05:56 -6.81728 143.43849 33868 ft 444 kts 308°
2026-05-06 05:57 -6.77991 143.38907 33864 ft 443 kts 308°
2026-05-06 05:57 -6.74279 143.33999 33853 ft 444 kts 308°
2026-05-06 05:58 -6.70513 143.29020 33859 ft 444 kts 307°
2026-05-06 05:58 -6.66795 143.24114 33853 ft 444 kts 308°
2026-05-06 05:59 -6.63050 143.19169 33856 ft 444 kts 308°
2026-05-06 05:59 -6.59303 143.14224 33854 ft 444 kts 307°
2026-05-06 06:00 -6.55558 143.09273 33867 ft 445 kts 307°
2026-05-06 06:00 -6.51815 143.04329 33863 ft 445 kts 308°
2026-05-06 06:01 -6.48054 142.99374 33859 ft 445 kts 308°
2026-05-06 06:01 -6.44299 142.94433 33853 ft 445 kts 308°
2026-05-06 06:02 -6.40542 142.89482 33869 ft 445 kts 308°
2026-05-06 06:02 -6.36782 142.84526 33858 ft 445 kts 308°
2026-05-06 06:03 -6.33024 142.79571 33846 ft 447 kts 307°
2026-05-06 06:03 -6.29256 142.74605 33849 ft 448 kts 307°
2026-05-06 06:04 -6.25497 142.69646 33850 ft 449 kts 307°
2026-05-06 06:04 -6.21705 142.64657 33852 ft 449 kts 308°
2026-05-06 06:05 -6.17910 142.59669 33859 ft 450 kts 307°
2026-05-06 06:05 -6.14114 142.54668 33871 ft 450 kts 308°
2026-05-06 06:06 -6.10311 142.49669 33878 ft 450 kts 308°
2026-05-06 06:06 -6.06512 142.44679 33866 ft 450 kts 308°
2026-05-06 06:07 -6.02718 142.39684 33878 ft 450 kts 308°
2026-05-06 06:07 -5.98918 142.34689 33866 ft 450 kts 308°
2026-05-06 06:08 -5.95122 142.29706 33868 ft 449 kts 308°
2026-05-06 06:08 -5.91323 142.24716 33854 ft 449 kts 308°
2026-05-06 06:09 -5.87543 142.19740 33855 ft 449 kts 308°
2026-05-06 06:09 -5.83755 142.14741 33843 ft 449 kts 308°
2026-05-06 06:10 -5.79971 142.09738 33844 ft 449 kts 308°
2026-05-06 06:10 -5.76188 142.04745 33847 ft 449 kts 308°
2026-05-06 06:11 -5.72405 141.99759 33839 ft 449 kts 308°
2026-05-06 06:11 -5.68621 141.94766 33838 ft 449 kts 308°
2026-05-06 06:12 -5.64848 141.89778 33838 ft 449 kts 308°
2026-05-06 06:12 -5.61067 141.84782 33858 ft 449 kts 308°
2026-05-06 06:13 -5.57311 141.79830 33859 ft 449 kts 308°
2026-05-06 06:13 -5.53534 141.74845 33860 ft 449 kts 308°
2026-05-06 06:14 -5.49746 141.69855 33883 ft 449 kts 308°
2026-05-06 06:14 -5.45965 141.64879 33878 ft 448 kts 308°
2026-05-06 06:15 -5.42185 141.59904 33874 ft 448 kts 308°
2026-05-06 06:15 -5.38398 141.54921 33876 ft 449 kts 308°
2026-05-06 06:16 -5.34624 141.49949 33892 ft 449 kts 308°
2026-05-06 06:16 -5.30844 141.44959 33894 ft 449 kts 308°
2026-05-06 06:17 -5.27058 141.39978 33894 ft 449 kts 308°
2026-05-06 06:17 -5.23267 141.35000 33912 ft 449 kts 308°
2026-05-06 06:18 -5.19482 141.30013 33908 ft 449 kts 308°
2026-05-06 06:18 -5.15701 141.25034 33908 ft 449 kts 308°
2026-05-06 06:19 -5.11913 141.20048 33909 ft 449 kts 308°
2026-05-06 06:19 -5.08114 141.15052 33913 ft 450 kts 308°
2026-05-06 06:20 -5.04323 141.10070 33923 ft 450 kts 308°
2026-05-06 06:20 -5.00521 141.05080 33914 ft 450 kts 308°
2026-05-06 06:21 -4.96743 141.00121 33908 ft 451 kts 308°
2026-05-06 06:21 -4.92929 140.95124 33907 ft 451 kts 308°
2026-05-06 06:22 -4.89111 140.90138 33907 ft 451 kts 309°
2026-05-06 06:22 -4.85291 140.85153 33912 ft 451 kts 308°
2026-05-06 06:23 -4.81475 140.80172 33904 ft 450 kts 308°
2026-05-06 06:23 -4.77658 140.75191 33920 ft 450 kts 309°
2026-05-06 06:24 -4.73853 140.70216 33918 ft 450 kts 309°
2026-05-06 06:24 -4.70037 140.65242 33917 ft 450 kts 308°
2026-05-06 06:25 -4.66220 140.60270 33906 ft 450 kts 308°
2026-05-06 06:26 -4.60490 140.52803 33917 ft 451 kts 308°
2026-05-06 06:26 -4.56665 140.47822 33910 ft 451 kts 309°
2026-05-06 06:27 -4.52843 140.42839 33911 ft 451 kts 308°
2026-05-06 06:27 -4.49016 140.37856 33928 ft 451 kts 309°
2026-05-06 06:28 -4.45190 140.32877 33910 ft 451 kts 309°
2026-05-06 06:28 -4.41371 140.27886 33911 ft 451 kts 308°
2026-05-06 06:29 -4.37549 140.22898 33913 ft 451 kts 308°
2026-05-06 06:29 -4.33715 140.17914 33909 ft 452 kts 308°
2026-05-06 06:30 -4.29881 140.12925 33874 ft 452 kts 308°
2026-05-06 06:30 -4.26061 140.07960 33881 ft 453 kts 309°
2026-05-06 06:31 -4.22213 140.02964 33897 ft 453 kts 308°
2026-05-06 06:31 -4.18368 139.97959 33861 ft 453 kts 308°
2026-05-06 06:32 -4.14521 139.92956 33875 ft 453 kts 309°
2026-05-06 06:32 -4.10688 139.87963 33894 ft 453 kts 308°
2026-05-06 06:33 -4.06850 139.82961 33854 ft 453 kts 308°
2026-05-06 06:33 -4.03650 139.78805 33858 ft 453 kts 308°
2026-05-06 06:34 -3.99144 139.72964 33859 ft 453 kts 308°
2026-05-06 06:34 -3.95940 139.68805 33872 ft 454 kts 308°
2026-05-06 06:35 -3.92097 139.63799 33823 ft 453 kts 308°
2026-05-06 06:35 -3.88250 139.58793 33836 ft 453 kts 308°
2026-05-06 06:36 -3.84401 139.53787 33835 ft 454 kts 308°
2026-05-06 06:36 -3.80543 139.48784 33814 ft 454 kts 308°
2026-05-06 06:37 -3.76690 139.43784 33815 ft 454 kts 308°
2026-05-06 06:37 -3.72832 139.38781 33827 ft 454 kts 308°
2026-05-06 06:38 -3.68974 139.33767 33810 ft 454 kts 308°
2026-05-06 06:38 -3.65116 139.28754 33814 ft 454 kts 308°
2026-05-06 06:39 -3.61259 139.23745 33831 ft 454 kts 308°
2026-05-06 06:39 -3.57403 139.18741 33799 ft 454 kts 308°
2026-05-06 06:40 -3.53536 139.13732 33800 ft 454 kts 308°
2026-05-06 06:40 -3.49670 139.08726 33807 ft 455 kts 308°
2026-05-06 06:41 -3.45807 139.03713 33808 ft 455 kts 308°
2026-05-06 06:41 -3.41938 138.98691 33805 ft 455 kts 308°
2026-05-06 06:42 -3.38074 138.93677 33809 ft 455 kts 308°
2026-05-06 06:42 -3.34250 138.88704 33821 ft 455 kts 308°
2026-05-06 06:43 -3.30381 138.83677 33796 ft 455 kts 308°
2026-05-06 06:43 -3.26527 138.78654 33805 ft 455 kts 308°
2026-05-06 06:44 -3.22679 138.73629 33812 ft 455 kts 308°
2026-05-06 06:44 -3.18816 138.68611 33785 ft 455 kts 308°
2026-05-06 06:45 -3.14946 138.63590 33790 ft 455 kts 308°
2026-05-06 06:45 -3.11087 138.58570 33789 ft 456 kts 308°
2026-05-06 06:46 -3.07220 138.53539 33787 ft 456 kts 308°
2026-05-06 06:46 -3.03355 138.48519 33787 ft 456 kts 308°
2026-05-06 06:47 -2.99486 138.43499 33788 ft 456 kts 308°
2026-05-06 06:47 -2.95605 138.38466 33793 ft 456 kts 308°
2026-05-06 06:48 -2.91766 138.33476 33791 ft 456 kts 308°
2026-05-06 06:48 -2.87888 138.28442 33791 ft 456 kts 308°
2026-05-06 06:49 -2.84015 138.23414 33804 ft 456 kts 308°
2026-05-06 06:49 -2.80135 138.18381 33798 ft 457 kts 308°
2026-05-06 06:50 -2.76259 138.13342 33798 ft 457 kts 308°
2026-05-06 06:50 -2.72371 138.08301 33799 ft 458 kts 308°
2026-05-06 06:51 -2.68484 138.03264 33797 ft 458 kts 308°
2026-05-06 06:51 -2.64600 137.98213 33802 ft 458 kts 308°
2026-05-06 06:52 -2.60718 137.93160 33806 ft 458 kts 308°
2026-05-06 06:52 -2.56828 137.88118 33808 ft 458 kts 308°
2026-05-06 06:53 -2.52935 137.83076 33808 ft 458 kts 308°
2026-05-06 06:53 -2.49040 137.78031 33811 ft 458 kts 308°
2026-05-06 06:54 -2.45151 137.72983 33810 ft 458 kts 308°
2026-05-06 06:54 -2.41268 137.67937 33810 ft 458 kts 308°
2026-05-06 06:55 -2.37409 137.62925 33807 ft 458 kts 308°
2026-05-06 06:55 -2.33523 137.57882 33805 ft 458 kts 308°
2026-05-06 06:56 -2.29623 137.52845 33803 ft 458 kts 308°
2026-05-06 06:56 -2.25730 137.47807 33803 ft 458 kts 308°
2026-05-06 06:57 -2.21845 137.42768 33791 ft 458 kts 308°
2026-05-06 06:57 -2.17968 137.37722 33796 ft 458 kts 308°
2026-05-06 06:58 -2.14082 137.32677 33787 ft 458 kts 308°
2026-05-06 06:58 -2.10180 137.27630 33784 ft 458 kts 308°
2026-05-06 06:59 -2.06273 137.22588 33785 ft 458 kts 308°
2026-05-06 06:59 -2.02384 137.17543 33789 ft 458 kts 308°
2026-05-06 07:00 -1.98493 137.12495 33790 ft 458 kts 308°
2026-05-06 07:00 -1.94599 137.07454 33780 ft 459 kts 308°
2026-05-06 07:01 -1.90732 137.02438 33783 ft 459 kts 307°
2026-05-06 07:01 -1.86839 136.97384 33778 ft 459 kts 308°
2026-05-06 07:02 -1.82940 136.92341 33781 ft 459 kts 308°
2026-05-06 07:02 -1.79038 136.87291 33783 ft 459 kts 308°
2026-05-06 07:03 -1.75137 136.82242 33790 ft 458 kts 308°
2026-05-06 07:03 -1.71239 136.77197 33794 ft 458 kts 308°
2026-05-06 07:04 -1.67347 136.72158 33795 ft 458 kts 308°
2026-05-06 07:04 -1.63458 136.67128 33788 ft 458 kts 307°
2026-05-06 07:05 -1.59566 136.62091 33792 ft 457 kts 307°
2026-05-06 07:05 -1.55679 136.57057 33791 ft 457 kts 307°
2026-05-06 07:06 -1.51793 136.52024 33793 ft 457 kts 308°
2026-05-06 07:06 -1.47912 136.46998 33792 ft 457 kts 308°
2026-05-06 07:07 -1.44025 136.41966 33791 ft 457 kts 308°
2026-05-06 07:07 -1.40141 136.36936 33793 ft 457 kts 308°
2026-05-06 07:08 -1.36246 136.31901 33799 ft 457 kts 308°
2026-05-06 07:08 -1.32354 136.26870 33803 ft 457 kts 308°
2026-05-06 07:09 -1.28472 136.21840 33805 ft 457 kts 308°
2026-05-06 07:09 -1.24581 136.16807 33809 ft 457 kts 308°
2026-05-06 07:10 -1.20722 136.11810 33803 ft 457 kts 308°
2026-05-06 07:10 -1.16510 136.07075 33799 ft 457 kts 319°
2026-05-06 07:11 -1.11722 136.02883 33801 ft 457 kts 319°
2026-05-06 07:11 -1.06951 135.98678 33801 ft 457 kts 319°
2026-05-06 07:12 -1.02187 135.94475 33796 ft 457 kts 319°
2026-05-06 07:12 -0.97418 135.90269 33796 ft 458 kts 319°
2026-05-06 07:13 -0.92640 135.86055 33796 ft 458 kts 319°
2026-05-06 07:13 -0.87851 135.81842 33801 ft 458 kts 319°
2026-05-06 07:14 -0.83068 135.77637 33800 ft 458 kts 319°
2026-05-06 07:14 -0.78281 135.73425 33809 ft 458 kts 319°
2026-05-06 07:15 -0.73499 135.69218 33814 ft 458 kts 319°
2026-05-06 07:15 -0.68726 135.65006 33816 ft 458 kts 319°
2026-05-06 07:16 -0.63956 135.60802 33815 ft 457 kts 319°
2026-05-06 07:16 -0.59186 135.56605 33814 ft 457 kts 319°
2026-05-06 07:17 -0.54406 135.52398 33812 ft 457 kts 319°
2026-05-06 07:17 -0.49630 135.48198 33813 ft 457 kts 319°
2026-05-06 07:18 -0.44880 135.44014 33814 ft 458 kts 319°
2026-05-06 07:18 -0.40101 135.39803 33815 ft 458 kts 319°
2026-05-06 07:19 -0.35324 135.35597 33815 ft 457 kts 319°
2026-05-06 07:19 -0.30550 135.31398 33816 ft 457 kts 319°
2026-05-06 07:20 -0.25775 135.27198 33817 ft 457 kts 319°
2026-05-06 07:20 -0.21023 135.23011 33817 ft 456 kts 319°
2026-05-06 07:21 -0.16258 135.18810 33815 ft 456 kts 319°
2026-05-06 07:21 -0.11502 135.14632 33811 ft 455 kts 319°
2026-05-06 07:22 -0.06747 135.10451 33811 ft 455 kts 319°
2026-05-06 07:22 -0.02037 135.06307 33807 ft 455 kts 319°
2026-05-06 07:23 0.02709 135.02123 33806 ft 454 kts 319°
2026-05-06 07:23 0.07444 134.97953 33806 ft 453 kts 319°
2026-05-06 07:24 0.12162 134.93796 33807 ft 452 kts 319°
2026-05-06 07:24 0.16889 134.89642 33802 ft 452 kts 319°
2026-05-06 07:25 0.20813 134.86196 33800 ft 452 kts 319°
2026-05-06 07:25 0.25517 134.82049 33800 ft 452 kts 319°
2026-05-06 07:26 0.30243 134.77889 33800 ft 452 kts 319°
2026-05-06 07:26 0.34951 134.73739 33802 ft 452 kts 319°
2026-05-06 07:27 0.39675 134.69580 33804 ft 452 kts 319°
2026-05-06 07:27 0.44394 134.65429 33803 ft 452 kts 319°
2026-05-06 07:28 0.49118 134.61272 33810 ft 453 kts 319°
2026-05-06 07:28 0.56194 134.55047 33822 ft 451 kts 319°
2026-05-06 07:29 0.60904 134.50902 33828 ft 450 kts 319°
2026-05-06 07:29 0.65587 134.46771 33828 ft 449 kts 319°
2026-05-06 07:30 0.70276 134.42637 33825 ft 448 kts 319°
2026-05-06 07:30 0.74951 134.38527 33825 ft 448 kts 319°
2026-05-06 07:31 0.79628 134.34416 33820 ft 448 kts 319°
2026-05-06 07:31 0.84258 134.30331 33817 ft 447 kts 319°
2026-05-06 07:32 0.88925 134.26215 33814 ft 447 kts 319°
2026-05-06 07:32 0.93597 134.22103 33811 ft 447 kts 319°
2026-05-06 07:33 0.98265 134.17989 33809 ft 447 kts 319°
2026-05-06 07:33 1.02934 134.13874 33810 ft 447 kts 319°
2026-05-06 07:34 1.07605 134.09763 33809 ft 447 kts 319°
2026-05-06 07:34 1.12273 134.05662 33805 ft 447 kts 318°
2026-05-06 07:35 1.16949 134.01542 33801 ft 448 kts 319°
2026-05-06 07:35 1.21622 133.97426 33800 ft 448 kts 319°
2026-05-06 07:36 1.26305 133.93304 33804 ft 448 kts 319°
2026-05-06 07:36 1.30985 133.89182 33805 ft 448 kts 319°
2026-05-06 07:37 1.35633 133.85084 33805 ft 448 kts 319°
2026-05-06 07:37 1.40311 133.80958 33806 ft 448 kts 318°
2026-05-06 07:38 1.44979 133.76840 33811 ft 448 kts 318°
2026-05-06 07:38 1.49655 133.72720 33812 ft 448 kts 319°
2026-05-06 07:39 1.54330 133.68608 33811 ft 448 kts 318°
2026-05-06 07:39 1.59004 133.64493 33811 ft 447 kts 318°
2026-05-06 07:40 1.63674 133.60379 33811 ft 447 kts 319°
2026-05-06 07:40 1.68330 133.56263 33811 ft 447 kts 318°
2026-05-06 07:41 1.72982 133.52157 33816 ft 446 kts 318°
2026-05-06 07:41 1.77645 133.48050 33818 ft 446 kts 318°
2026-05-06 07:42 1.82295 133.43958 33821 ft 445 kts 318°
2026-05-06 07:42 1.86933 133.39866 33819 ft 445 kts 319°
2026-05-06 07:43 1.91569 133.35771 33814 ft 444 kts 319°
2026-05-06 07:43 1.96202 133.31688 33813 ft 444 kts 318°
2026-05-06 07:44 2.00833 133.27604 33820 ft 443 kts 318°
2026-05-06 07:44 2.05442 133.23519 33820 ft 443 kts 318°
2026-05-06 07:45 2.10036 133.19425 33823 ft 442 kts 318°
2026-05-06 07:45 2.14619 133.15334 33818 ft 442 kts 318°
2026-05-06 07:46 2.19208 133.11243 33810 ft 442 kts 318°
2026-05-06 07:46 2.23777 133.07185 33808 ft 442 kts 318°
2026-05-06 07:47 2.28394 133.03078 33808 ft 442 kts 318°
2026-05-06 07:47 2.32968 132.99012 33811 ft 442 kts 318°
2026-05-06 07:48 2.37557 132.94925 33806 ft 442 kts 318°
2026-05-06 07:48 2.42141 132.90838 33806 ft 442 kts 318°
2026-05-06 07:49 2.46734 132.86746 33803 ft 442 kts 318°
2026-05-06 07:49 2.51331 132.82661 33805 ft 442 kts 318°
2026-05-06 07:50 2.55925 132.78566 33805 ft 442 kts 318°
2026-05-06 07:50 2.60520 132.74463 33805 ft 443 kts 318°
2026-05-06 07:51 2.65107 132.70377 33802 ft 443 kts 318°
2026-05-06 07:51 2.69724 132.66276 33801 ft 443 kts 318°
2026-05-06 07:52 2.74338 132.62176 33802 ft 443 kts 318°
2026-05-06 07:52 2.78936 132.58071 33804 ft 443 kts 318°
2026-05-06 07:53 2.83540 132.53965 33801 ft 443 kts 319°
2026-05-06 07:53 2.88146 132.49864 33800 ft 444 kts 319°
2026-05-06 07:54 2.92719 132.45783 33800 ft 444 kts 319°
2026-05-06 07:54 2.97332 132.41669 33801 ft 444 kts 319°
2026-05-06 07:55 3.01947 132.37561 33799 ft 444 kts 319°
2026-05-06 07:55 3.06557 132.33456 33800 ft 444 kts 319°
2026-05-06 07:56 3.11172 132.29339 33804 ft 444 kts 319°
2026-05-06 07:56 3.15765 132.25227 33805 ft 444 kts 319°
2026-05-06 07:57 3.20385 132.21113 33803 ft 444 kts 319°
2026-05-06 07:57 3.25003 132.17006 33806 ft 444 kts 319°
2026-05-06 07:58 3.29614 132.12891 33808 ft 444 kts 319°
2026-05-06 07:58 3.34216 132.08777 33808 ft 444 kts 319°
2026-05-06 07:59 3.38827 132.04663 33808 ft 444 kts 319°
2026-05-06 07:59 3.43436 132.00553 33806 ft 444 kts 319°
2026-05-06 08:00 3.48044 131.96438 33807 ft 444 kts 319°
2026-05-06 08:00 3.52646 131.92327 33810 ft 444 kts 319°
2026-05-06 08:01 3.57250 131.88209 33812 ft 444 kts 319°
2026-05-06 08:01 3.61856 131.84095 33812 ft 443 kts 319°
2026-05-06 08:02 3.66450 131.79989 33811 ft 443 kts 319°